DW3648 Granada ES current weather conditions

sailwx.info

Wind from 349

Air temperature 21.1° C
Dewpoint 15.4° C

Last reported at 2018-Sep-25 22:59 UTC.
Time now 2018-Sep-25 23:37 UTC

Location: N 37°10' W 003°35'.
View on Google Maps.

See reports from other nearby stations

  
Tides and Currents Weather Stations Pressure Air Temp Water Temp Dewpoint Dewpoint Depression Visibility Wind Speed Wind Dir Waves Ship Positions
date/time (UTC)wind fromknots sea level pressurealtimeterstation pressurevisibilityair tempwater tempwave heightnotes
2018-Sep-25 22:59 349 21.1
2018-Sep-25 22:44 348 21.7
2018-Sep-25 22:29 347 21.7
2018-Sep-25 22:14 347 22.2
2018-Sep-25 21:59 347 22.2
2018-Sep-25 21:44 101 22.2
2018-Sep-25 21:29 096 22.2
2018-Sep-25 21:14 338 22.8
2018-Sep-25 20:59 338 22.8
2018-Sep-25 20:44 290 0 gusting 4 22.8
2018-Sep-25 20:29 292 0 gusting 6 23.3
2018-Sep-25 20:14 334 1 gusting 6 23.3
2018-Sep-25 19:59 310 3 gusting 6 23.9
2018-Sep-25 19:44 277 0 gusting 5 24.4
2018-Sep-25 19:29 277 24.4
2018-Sep-25 19:14 307 25.0
2018-Sep-25 18:59 311 25.0
2018-Sep-25 18:43 308 0 gusting 4 25.6
2018-Sep-25 18:28 263 0 gusting 3 26.1
2018-Sep-25 18:14 262 26.7
2018-Sep-25 17:59 262 27.2
2018-Sep-25 17:43 169 27.8
2018-Sep-25 17:28 227 27.8
2018-Sep-25 17:13 181 3 gusting 8 28.3
2018-Sep-25 16:58 163 5 gusting 10 28.9
2018-Sep-25 16:43 202 2 gusting 8 29.4
2018-Sep-25 16:28 170 2 gusting 10 30.0
2018-Sep-25 16:13 099 3 gusting 8 31.1
2018-Sep-25 15:58 183 3 gusting 11 31.1
2018-Sep-25 15:43 187 4 gusting 9 31.1
2018-Sep-25 15:28 206 1 gusting 6 31.7
2018-Sep-25 15:13 175 4 gusting 9 31.7
2018-Sep-25 14:58 219 5 gusting 9 31.7
2018-Sep-25 14:43 190 4 gusting 9 31.7
2018-Sep-25 14:28 157 1 gusting 8 30.6
2018-Sep-25 14:13 262 5 gusting 10 31.7
2018-Sep-25 13:58 154 3 gusting 7 32.2
2018-Sep-25 13:43 201 1 gusting 10 31.7
2018-Sep-25 13:28 313 1 gusting 6 31.7
2018-Sep-25 13:13 232 3 gusting 9 31.1
2018-Sep-25 12:58 231 5 gusting 8 31.1
2018-Sep-25 12:43 290 5 gusting 9 31.1
2018-Sep-25 12:28 202 3 gusting 7 31.1
2018-Sep-25 12:13 200 31.7
2018-Sep-25 11:58 296 0 gusting 6 31.1
2018-Sep-25 11:43 277 0 gusting 5 31.7
2018-Sep-25 11:28 282 30.6
2018-Sep-25 11:13 288 0 gusting 4 30.0
2018-Sep-25 10:58 280 2 gusting 6 28.9
2018-Sep-25 10:43 309 0 gusting 6 28.3
2018-Sep-25 10:28 287 0 gusting 6 28.3
2018-Sep-25 10:13 250 0 gusting 4 28.9
2018-Sep-25 09:58 275 28.3
2018-Sep-25 09:43 275 0 gusting 4 27.2
2018-Sep-25 09:28 251 26.7
2018-Sep-25 09:13 251 26.1
2018-Sep-25 08:58 251 25.6
2018-Sep-25 08:43 086 24.4
2018-Sep-25 08:28 086 23.9
2018-Sep-25 08:13 087 22.8
2018-Sep-25 07:58 086 22.2
2018-Sep-25 07:42 086 21.1
2018-Sep-25 07:27 086 20.6
2018-Sep-25 07:12 086 19.4
2018-Sep-25 06:57 086 18.3
2018-Sep-25 06:42 086 17.8
2018-Sep-25 06:27 086 17.8
2018-Sep-25 06:12 086 17.8
2018-Sep-25 05:57 087 17.8
2018-Sep-25 05:42 086 18.3
2018-Sep-25 05:27 087 18.3
2018-Sep-25 05:12 086 18.3
2018-Sep-25 04:57 086 18.9
2018-Sep-25 04:42 086 18.9
2018-Sep-25 04:27 087 18.9
2018-Sep-25 04:12 086 18.9
2018-Sep-25 03:57 087 19.4
2018-Sep-25 03:42 087 19.4
2018-Sep-25 03:27 086 19.4
2018-Sep-25 03:12 087 19.4
2018-Sep-25 02:57 087 19.4
2018-Sep-25 02:42 086 19.4
2018-Sep-25 02:27 087 1 gusting 6 19.4
2018-Sep-25 02:12 088 4 gusting 6 19.4
2018-Sep-25 01:57 085 20.0
2018-Sep-25 01:42 085 20.0
2018-Sep-25 01:27 085 0 gusting 5 20.0
2018-Sep-25 01:12 084 20.0
2018-Sep-25 00:57 084 20.6
2018-Sep-25 00:42 084 20.6
2018-Sep-25 00:27 084 21.1
2018-Sep-25 00:12 084 21.1
2018-Sep-24 23:57 084 21.1
2018-Sep-24 23:42 084 21.1
2018-Sep-24 23:27 084 21.1
2018-Sep-24 23:12 084 21.1
2018-Sep-24 22:57 084 1 gusting 4 21.1
2018-Sep-24 22:42 105 1 gusting 5 21.1
2018-Sep-24 22:27 091 3 gusting 6 21.1
2018-Sep-24 22:12 096 21.7
2018-Sep-24 21:57 100 21.7
2018-Sep-24 21:42 106 2 gusting 6 22.2
2018-Sep-24 21:27 088 22.8
2018-Sep-24 21:12 130 2 gusting 5 22.8
2018-Sep-24 20:57 118 23.9
2018-Sep-24 20:42 120 0 gusting 4 24.4
2018-Sep-24 20:27 355 0 gusting 4 24.4
2018-Sep-24 20:12 331 25.0
2018-Sep-24 19:57 319 25.0
2018-Sep-24 19:42 302 25.6
2018-Sep-24 19:27 005 25.6
2018-Sep-24 19:12 224 26.1
2018-Sep-24 18:57 224 0 gusting 3 26.7
2018-Sep-24 18:42 223 0 gusting 6 26.7
2018-Sep-24 18:27 136 0 gusting 6 27.2
2018-Sep-24 18:12 257 0 gusting 8 27.8
2018-Sep-24 17:57 136 28.3
2018-Sep-24 17:42 064 29.4
2018-Sep-24 17:27 188 1 gusting 7 30.0
2018-Sep-24 17:12 093 2 gusting 8 30.6
2018-Sep-24 16:57 236 3 gusting 11 31.1
2018-Sep-24 16:42 164 4 gusting 12 32.2
2018-Sep-24 16:27 175 0 gusting 7 32.8
2018-Sep-24 16:12 192 2 gusting 6 33.3
2018-Sep-24 15:56 180 0 gusting 5 34.4
2018-Sep-24 15:42 233 33.3
2018-Sep-24 15:26 288 2 gusting 7 33.9
2018-Sep-24 15:11 267 33.3
2018-Sep-24 14:56 267 32.8
2018-Sep-24 14:41 348 0 gusting 5 32.8
2018-Sep-24 14:26 286 1 gusting 6 32.8
2018-Sep-24 14:11 260 2 gusting 6 33.3
2018-Sep-24 13:56 197 32.8
2018-Sep-24 13:41 192 0 gusting 6 32.8
2018-Sep-24 13:26 253 0 gusting 6 32.2
2018-Sep-24 13:11 277 2 gusting 6 32.2
2018-Sep-24 12:56 228 2 gusting 6 31.7
2018-Sep-24 12:41 190 2 gusting 6 30.6
2018-Sep-24 12:26 269 1 gusting 6 31.1
2018-Sep-24 12:11 329 0 gusting 5 30.6
2018-Sep-24 11:56 277 4 gusting 8 30.6
2018-Sep-24 11:41 218 2 gusting 6 30.6
2018-Sep-24 11:26 294 0 gusting 4 30.6
2018-Sep-24 11:11 299 1 gusting 4 29.4
2018-Sep-24 10:56 229 29.4
2018-Sep-24 10:41 246 29.4
2018-Sep-24 10:26 244 0 gusting 4 28.3
2018-Sep-24 10:11 250 1 gusting 6 27.8
2018-Sep-24 09:56 233 1 gusting 5 27.8
2018-Sep-24 09:41 237 27.2
2018-Sep-24 09:26 150 26.7
2018-Sep-24 09:11 150 26.7
2018-Sep-24 08:56 150 25.0
2018-Sep-24 08:41 109 24.4
2018-Sep-24 08:25 094 23.3
2018-Sep-24 08:10 101 22.8
2018-Sep-24 07:55 101 21.7
2018-Sep-24 07:40 086 0 gusting 4 20.6
2018-Sep-24 07:25 088 19.4
2018-Sep-24 07:10 103 18.9
2018-Sep-24 06:55 128 17.8
2018-Sep-24 06:41 127 17.2
2018-Sep-24 06:25 127 17.2
2018-Sep-24 06:10 121 17.2
2018-Sep-24 05:55 120 17.2
2018-Sep-24 05:40 120 17.8
2018-Sep-24 05:25 120 17.8
2018-Sep-24 05:10 120 17.8
2018-Sep-24 04:55 120 0 gusting 6 17.8
2018-Sep-24 04:40 092 2 gusting 6 17.8
2018-Sep-24 04:25 111 17.8
2018-Sep-24 04:10 111 18.3
2018-Sep-24 03:55 096 18.3
2018-Sep-24 03:40 124 0 gusting 4 18.3
2018-Sep-24 03:25 096 2 gusting 6 18.3
2018-Sep-24 03:10 098 18.9
2018-Sep-24 02:55 098 0 gusting 3 18.9
2018-Sep-24 02:40 098 1 gusting 4 18.9
2018-Sep-24 02:25 097 1 gusting 5 18.9
2018-Sep-24 02:10 082 0 gusting 5 18.9
2018-Sep-24 01:55 120 1 gusting 5 18.9
2018-Sep-24 01:40 103 19.4
2018-Sep-24 01:25 104 19.4
2018-Sep-24 01:10 104 19.4
2018-Sep-24 00:55 104 20.0
2018-Sep-24 00:40 104 1 gusting 4 20.0
2018-Sep-24 00:25 098 20.0
2018-Sep-24 00:10 099 0 gusting 2 20.0
2018-Sep-23 23:55 099 20.0
2018-Sep-23 23:40 094 1 gusting 5 20.6
2018-Sep-23 23:25 097 2 gusting 6 20.6
2018-Sep-23 23:10 115 1 gusting 6 20.6